Location: Betzi
(47.2343°N, 9.5260°E)
Time: 22:48:41
(UTC+00:00)

Cosmos 1544 Rocket - Pass Details

Date: 27 May 2022
Orbit: 603 x 631 km, 82.5° (Epoch: 26 June)

Event Time Altitude Azimuth Distance (km) Brightness Sun altitude
Rises 01:20:44 0° 347° (NNW) 2,917 7.8 -16.2°
Reaches altitude 10° 01:23:00 10° 343° (NNW) 2,001 6.8 -16.0°
Maximum altitude 01:27:21 57° 265° (W) 733 3.7 -15.7°
Enters shadow 01:29:34 27° 197° (SSW) 1,200 4.5 -15.5°
